San Luis Obispo, CA

8:19 AM PDT on September 26, 2017 (GMT -0700)
San Luis Obispo County-McChesney

Weather History for KSBP - April, 2014

Change the Weather History Date:

Sunday, April 6, 2014

  Actual Average Record
Temperature  
Mean Temperature 66 °F -  
Max Temperature 81 °F 67 °F 98 °F (1989)
Min Temperature 53 °F 44 °F 34 °F (1983)
Cooling Degree Days 1    
Growing Degree Days 16 (Base 50)    
Moisture  
Dew Point 47 °F    
Average Humidity 59    
Maximum Humidity 83    
Minimum Humidity 29    
Precipitation  
Precipitation 0.00 in - - ()
Sea Level Pressure  
Sea Level Pressure 30.13 in    
Wind  
Wind Speed 9 mph (NW)    
Max Wind Speed 22 mph    
Max Gust Speed 26 mph    
Visibility 10 miles    
Events      
Averages and records for this station are not official NWS values.
T = Trace of Precipitation, MM = Missing Value Source: NWS Daily Summary

Daily Weather History Graph

Daily Weather History Graph

Search for Another Location

Airport or City:

Trip Planner

Search our weather history database for the weather conditions in past years. The results will help you decide how hot, cold, wet, or windy it might be!

Date:

Astronomy

Apr. 06, 2014 Rise Set
Actual Time 6:42 AM PDT 7:28 PM PDT
Civil Twilight 6:16 AM PDT 7:53 PM PDT
Nautical Twilight 5:46 AM PDT 8:24 PM PDT
Astronomical Twilight 5:14 AM PDT 8:55 PM PDT
Moon 11:54 AM PDT (4/6) 1:20 AM PDT (4/6)
Length of Visible Light 13h 37m
Length of Day
12h 45m
Waxing Crescent, 45% of the Moon is Illuminated
Apr 6
Waxing Crescent
Apr 7
First Quarter
Apr 15
Full
Apr 22
Last Quarter
Apr 28
New

Hourly Weather History & Observations

Time (PDT) Temp. Dew Point Humidity Pressure Visibility Wind Dir Wind Speed Gust Speed Precip Events Conditions
12:56 AM 54.0 °F 44.1 °F 69% 30.16 in 10.0 mi NW 5.8 mph - N/A   Clear
1:56 AM 53.1 °F 46.9 °F 80% 30.16 in 10.0 mi West 6.9 mph - N/A   Clear
2:56 AM 57.0 °F 44.1 °F 62% 30.15 in 10.0 mi North 9.2 mph - N/A   Clear
3:56 AM 53.1 °F 45.0 °F 74% 30.15 in 10.0 mi WNW 5.8 mph - N/A   Clear
4:56 AM 54.0 °F 44.1 °F 69% 30.14 in 10.0 mi North - - N/A   Clear
5:56 AM 54.0 °F 44.1 °F 69% 30.14 in 10.0 mi North - - N/A   Clear
6:56 AM 53.1 °F 43.0 °F 69% 30.15 in 10.0 mi Variable 4.6 mph - N/A   Clear
7:56 AM 57.9 °F 45.0 °F 62% 30.17 in 10.0 mi NNW 10.4 mph - N/A   Clear
8:56 AM 64.0 °F 46.0 °F 52% 30.17 in 10.0 mi NNW 10.4 mph - N/A   Clear
9:56 AM 66.9 °F 46.9 °F 49% 30.17 in 10.0 mi West 4.6 mph - N/A   Clear
10:56 AM 73.0 °F 46.0 °F 38% 30.16 in 10.0 mi Variable 4.6 mph 17.3 mph N/A   Clear
11:56 AM 75.9 °F 46.9 °F 36% 30.15 in 10.0 mi Variable 4.6 mph - N/A   Clear
12:56 PM 78.1 °F 46.0 °F 32% 30.13 in 10.0 mi NNE 11.5 mph 16.1 mph N/A   Clear
1:56 PM 79.0 °F 44.1 °F 29% 30.11 in 10.0 mi Variable 5.8 mph 20.7 mph N/A   Clear
2:56 PM 73.9 °F 51.1 °F 45% 30.10 in 10.0 mi NW 19.6 mph 23.0 mph N/A   Clear
3:06 PM 73.4 °F 51.8 °F 47% 30.09 in 10.0 mi WNW 18.4 mph 23.0 mph N/A   Clear
3:56 PM 72.0 °F 48.9 °F 44% 30.08 in 10.0 mi NW 21.9 mph - N/A   Clear
4:56 PM 70.0 °F 46.0 °F 42% 30.08 in 10.0 mi NW 17.3 mph 26.5 mph N/A   Clear
5:56 PM 66.0 °F 48.9 °F 54% 30.08 in 10.0 mi NW 18.4 mph - N/A   Clear
6:56 PM 61.0 °F 51.1 °F 70% 30.08 in 10.0 mi NW 13.8 mph - N/A   Clear
7:56 PM 57.9 °F 50.0 °F 75% 30.08 in 10.0 mi WNW 8.1 mph - N/A   Clear
8:56 PM 57.0 °F 50.0 °F 77% 30.09 in 10.0 mi WNW 5.8 mph - N/A   Clear
10:56 PM 55.0 °F 50.0 °F 83% 30.11 in 9.0 mi Calm Calm - N/A   Clear
11:56 PM 54.0 °F 48.9 °F 83% 30.11 in 10.0 mi SSE 5.8 mph - N/A   Clear